Regional Weather Roundup
Issued by NWS

Home | Current Version | Previous Version | Graphics & Text | Print | Product List | Glossary On
Versions: 1 2 3 4 5 6 7 8 9 10 11 12 13 14 15 16 17 18 19 20 21 22 23 24 25 26 27 28 29 30 31 32 33 34 35 36 37 38 39 40 41 42 43 44 45 46 47 48 49 50
000
ASUS43 KLOT 281203
RWRIL

ILLINOIS REGIONAL WEATHER ROUNDUP
NATIONAL WEATHER SERVICE CHICAGO/ROMEOVILLE IL
700 AM CDT WED SEP 28 2016

NOTE: "FAIR" INDICATES FEW OR NO CLOUDS BELOW 12,000 FEET WITH NO
SIGNIFICANT WEATHER AND/OR OBSTRUCTIONS TO VISIBILITY.

* THESE STATIONS ARE NOT UNDER NWS QUALITY CONTROL. THEY ALSO MAY NOT
  REPORT WEATHER SUCH AS PRECIPITATION OR FOG.

ILZ001-002-007-009-015-016-024-281300-
NORTHWEST ILLINOIS

CITY           SKY/WX    TMP DP  RH WIND       PRES   REMARKS
MOLINE         MOCLDY    51  43  74 N8G18     29.89R
6HR MIN TEMP:  51; 6HR MAX TEMP:  59;

STERLING*      CLOUDY    51  46  83 N13       29.88R
$$

ILZ003-004-008-010-011-017-018-281300-
NORTH CENTRAL ILLINOIS

CITY           SKY/WX    TMP DP  RH WIND       PRES   REMARKS
ROCKFORD       CLOUDY    50  47  89 N10       29.87R
6HR MIN TEMP:  49; 6HR MAX TEMP:  53; 6HR PCP: TRACE;

FREEPORT*      CLOUDY    48  46  92 NW9       29.89R
ROCHELLE*      CLOUDY    48  46  95 N9        29.86R
$$

ILZ005-006-012>014-019>023-281300-
NORTHEAST ILLINOIS

CITY           SKY/WX    TMP DP  RH WIND       PRES   REMARKS
CHICAGO-OHARE  CLOUDY    51  46  83 N9        29.82R
6HR MIN TEMP:  50; 6HR MAX TEMP:  54; 6HR PCP: TRACE;

CHICAGO-MIDWAY CLOUDY    53  47  79 N13       29.81R
6HR MIN TEMP:  53; 6HR MAX TEMP:  57; 6HR PCP:  0.01;

AURORA         CLOUDY    50  46  86 N12       29.83R
6HR MIN TEMP:  50; 6HR MAX TEMP:  54; 6HR PCP: TRACE;

LANSING*       LGT RAIN  53  49  89 W8        29.81R
WAUKEGAN       CLOUDY    49  47  93 VRB3      29.82R
6HR MIN TEMP:  49; 6HR MAX TEMP:  52; 6HR PCP: TRACE;

DUPAGE AIRPORT CLOUDY    50  44  80 N9        29.82R
6HR MIN TEMP:  50; 6HR MAX TEMP:  53; 6HR PCP: TRACE;

KANKAKEE*      CLOUDY    53  47  81 NW8       29.80R
WHEELING       CLOUDY    50  46  86 N8        29.84R
6HR MIN TEMP:  50; 6HR MAX TEMP:  54; 6HR PCP: TRACE;

NORTHERLY ISL    N/A     52  47  83 N12         N/A
$$

LMZ740>746-281300-
SOUTHERN LAKE MICHIGAN

STATION/POSITION SKY/WX   TEMP    WIND        PRES    VSBY  WAVE
                          AIR SEA DIR/SP/G                  HT/PER
                          (F)     (DEG/KT/KT) (MB)    (MI)  (FT/S)
SOUTHERN BUOY              55 69   50/  4/  6 1008.9          1/ 4
WILMETTE HARBOR            52 59   10/ 14/ 16   N/A           2/ 3
HARRISON CRIB              54     350/ 17/ 18   N/A
BURNHAM HARBOR             52     340/ 10/ 13   N/A
CALUMET HARBOR             54     330/  9/ 17 1008.5R
BURNS HARBOR               58      30/ 15/ 18 1008.8R
MICHIGAN CITY              55     360/ 19/ 22   N/A
MICHIGAN CITY 6N           57 66   20/ 16/ 19   N/A           4/ 4
ST. JOSEPH                 57 66   30/ 12/ 16 1009.3R         3/ 4
$$

ILZ025>027-034>036-040-047-049-050-058-095>099-281300-
WEST-CENTRAL ILLINOIS

CITY           SKY/WX    TMP DP  RH WIND       PRES   REMARKS
QUINCY         CLOUDY    55  44  66 N16       29.86R
GALESBURG*     CLOUDY    49  44  82 NW8       29.89R
MACOMB*        CLOUDY    53  46  76 N13G18    29.90R
$$

ILZ028>032-037-038-041>044-048-051>054-059>061-281300-
CENTRAL ILLINOIS

CITY           SKY/WX    TMP DP  RH WIND       PRES   REMARKS
BLOOMINGTON    CLOUDY    52  46  80 N16       29.82R
DECATUR        CLOUDY    57  46  66 N17       29.78R
PEORIA         CLOUDY    52  45  77 N12       29.85R
6HR MIN TEMP:  52; 6HR MAX TEMP:  60;

LINCOLN*       CLOUDY    55  47  75 N10G16    29.83R
SPRINGFIELD    CLOUDY    56  46  69 N15       29.82R
6HR MIN TEMP:  56; 6HR MAX TEMP:  61;

TAYLORVILLE    NOT AVBL
$$

ILZ033-039-045-046-055>057-062-063-281300-
EAST-CENTRAL ILLINOIS

CITY           SKY/WX    TMP DP  RH WIND       PRES   REMARKS
CHAMPAIGN      CLOUDY    55  50  83 N6        29.77R
MATTOON        CLOUDY    59  52  77 W8        29.75R
$$

ILZ079-100>102-281300-
SOUTHWEST ILLINOIS

CITY           SKY/WX    TMP DP  RH WIND       PRES   REMARKS
BELLEVILLE     CLOUDY    61  55  80 W10       29.78R
CAHOKIA*       CLOUDY    63  53  70 W5        29.80R
SPARTA*        CLOUDY    59  52  76 SW5       29.81S
$$

ILZ064>066-069>071-074>076-080>082-084>086-088>090-092>094-281300-
SOUTH-CENTRAL ILLINOIS

CITY           SKY/WX    TMP DP  RH WIND       PRES   REMARKS
CARBONDALE     MOCLDY    55  53  93 SW5       29.81S
6HR MIN TEMP:  54; 6HR MAX TEMP:  61;

MARION         MOCLDY    59  54  82 SW8       29.82S
MT. VERNON     PTCLDY    55  48  76 CALM      29.80S
CENTRALIA*     CLOUDY    60  55  82 SW7       29.78S
SALEM*         CLOUDY    60  54  78 CALM      29.78S
METROPOLIS*    PTCLDY    61  51  70 CALM      29.85S
$$

ILZ067-068-072-073-078-083-087-091-281300-
SOUTHEAST ILLINOIS

CITY           SKY/WX    TMP DP  RH WIND       PRES   REMARKS
LAWRENCEVILLE  CLOUDY    58  53  84 S6        29.77S
FLORA*         CLOUDY    59  54  82 SW7       29.77S
HARRISBURG*    CLEAR     57  53  87 S5        29.82S
ROBINSON*      CLOUDY    58  54  86 SW6       29.77R
$$

ABBREVIATIONS USED IN REMARKS
   TC - TEMPERATURE IN CELSIUS
  WCI - WIND CHILL INDEX
   HX - HEAT INDEX
  VSB - VISIBILITY
$$




USA.gov is the U.S. government's official web portal to all federal, state and local government web resources and services.